Regional Weather Roundup
Issued by NWS

Home | Current Version | Previous Version | Text Only | Print | Product List | Glossary Off
Versions: 1 2 3 4 5 6 7 8 9 10 11 12 13 14 15 16 17 18 19 20 21 22 23 24 25 26 27 28 29 30 31 32 33 34 35 36 37 38 39 40 41 42 43 44 45 46 47 48 49 50

000
ASUS43 KFSD 301502
RWRSD

WEATHER ROUNDUP FOR SOUTH DAKOTA
NATIONAL WEATHER SERVICE SIOUX FALLS SD
1000 AM CDT SUN APR 30 2017

NOTE: "FAIR" INDICATES FEW OR NO CLOUDS BELOW 12,000 FEET WITH NO
SIGNIFICANT WEATHER AND/OR OBSTRUCTIONS TO VISIBILITY.


SDZ001>005-009-010-012>017-301600-
NORTHWEST AND NORTH CENTRAL SOUTH DAKOTA

CITY           SKY/WX    TMP DP  RH WIND       PRES   REMARKS
BUFFALO          N/A     49  25  39 SW3       29.96F
FAITH            N/A     49  27  42 N7        30.02F
MOBRIDGE       SUNNY     52  29  41 W3        30.03F
$$

SDZ012>016-024>037-041>051-057-063-072>074-301600-
SOUTHWEST AND SOUTH CENTRAL SOUTH DAKOTA

CITY           SKY/WX    TMP DP  RH WIND       PRES   REMARKS
RAPID CTY ARPT SUNNY     49  23  36 N14       30.01F
PIERRE         MOSUNNY   49  28  44 NE13      30.00F
CUSTER         SUNNY     40  14  34 NE9       29.99F
ELLSWORTH AFB  SUNNY     48  24  39 N9        30.00F
PHILIP         CLOUDY    51  23  33 NE10      30.00F
PINE RIDGE     CLOUDY    39  29  67 W7        30.00F
SPEARFISH      FAIR      48  18  29 CALM      30.02F
WINNER         FAIR      45  27  49 N18       29.95F
$$

SDZ004>011-016>023-039-040-301600-
NORTHEAST SOUTH DAKOTA

CITY           SKY/WX    TMP DP  RH WIND       PRES   REMARKS
ABERDEEN       CLOUDY    46  26  45 NE14      30.06F
WATERTOWN      CLOUDY    43  26  51 NE14      30.01F
BROOKINGS      CLOUDY    41  27  57 NE14      29.98F
SISSETON         N/A     50  26  39 E9        30.06F
$$

SDZ017-020-022-023-036>040-048>070-301600-
SOUTHEAST SOUTH DAKOTA

CITY           SKY/WX    TMP DP  RH WIND       PRES   REMARKS
SIOUX FALLS    LGT RAIN  37  37 100 NE15      29.96F
HURON          PTSUNNY   45  28  51 NE15      29.98F
CHAMBERLAIN    CLOUDY    46  25  44 N13G21    29.95F
MITCHELL       CLOUDY    45  28  51 NE20      29.96F
YANKTON        CLOUDY    37  34  87 N17G24    29.92S
$$

ABBREVIATIONS USED IN REMARKS
   TC - TEMPERATURE IN CELSIUS
  WCI - WIND CHILL INDEX
   HX - HEAT INDEX
  VSB - VISIBILITY




USA.gov is the U.S. government's official web portal to all federal, state and local government web resources and services.